User: anonymous   Login
Location: Unspecified
(0.0000°N, 0.0000°E)
Time: 18:56:26
(UTC+02:00)
Language:

JASON 3 - Orbit

View from above orbital plane
View from above orbital plane
View from above satellite
View from above satellite

Ground track
Ground track

The orbit data is extracted from the following two-line orbital elements,

1 41240U 16002A   22273.41024158 -.00000061  00000-0  15578-5 0  9990
2 41240  66.0405  71.0721 0007595 264.9714  95.0434 12.80930850313492
Epoch (UTC): 30 September 2022 09:50:44
Eccentricity: 0.0007595
inclination: 66.0405°
perigee height: 1332 km
apogee height: 1343 km
right ascension of ascending node: 71.0721°
argument of perigee: 264.9714°
revolutions per day: 12.80930850
mean anomaly at epoch: 95.0434°
orbit number at epoch: 31349

The dashed part of the orbit path shows where the satellite is in the earth's shadow,  

DLR